Tracking 30166 objects as of 22-Jan-2025
HD Live streaming from Space Station
objects crossing your sky now

OBJECT BC

Track OBJECT BC now!
10-day predictions


NORAD ID: 61785
Int'l Code: 2024-199BC
Perigee: 481.5 km
Apogee: 504.4 km
Inclination: 97.4 °
Period: 94.3 minutes
Semi major axis: 6863 km
RCS: Unknown
Launch date: November 4, 2024
Source: (TBD)
Launch site: VOSTOCHNY COSMODROME (VOSTO)
Your satellite tracking list
Your tracking list is empty




NASA's NSSDC Master Catalog

Two Line Element Set (TLE):
1 61785U 24199BC  25022.52961149  .00029753  00000-0  11291-2 0  9992
2 61785  97.3761 252.1942 0016690 330.8562  29.1744 15.26666428 55829
Source of the keplerian elements: AFSPC